AAL1200 KORD-KDCA

Flight info

Callsign AAL1200
Flight time 0h 44m
Altitude 37000
Route MOBLE ADIME OTENS ANEWA JERRI NUSMM BUCKO FRDMM6
Aircraft A319/M-SDE3FGHIRWY/LB1

Departure

Time 2026-05-04 19:39
Airport Chicago O'Hare International Airport (KORD)

Arrival

Time 2026-05-04 20:23
Airport Ronald Reagan Washington National Airport (KDCA)
Time Latitude Longitude Altitude Speed Heading
2026-05-04 19:32 41.97387 -87.89672 669 ft 0 kts 343°
2026-05-04 19:35 41.97358 -87.89660 667 ft 8 kts 343°
2026-05-04 19:35 41.97314 -87.89627 667 ft 8 kts 237°
2026-05-04 19:35 41.97316 -87.89623 667 ft 0 kts 228°
2026-05-04 19:35 41.97307 -87.89620 668 ft 3 kts 142°
2026-05-04 19:36 41.97260 -87.89564 668 ft 19 kts 139°
2026-05-04 19:36 41.97158 -87.89438 669 ft 16 kts 170°
2026-05-04 19:36 41.97085 -87.89438 669 ft 10 kts 181°
2026-05-04 19:36 41.97045 -87.89438 666 ft 0 kts 178°
2026-05-04 19:37 41.97042 -87.89438 669 ft 1 kts 178°
2026-05-04 19:37 41.97027 -87.89437 669 ft 3 kts 177°
2026-05-04 19:38 41.96995 -87.89435 670 ft 8 kts 177°
2026-05-04 19:38 41.96911 -87.89469 668 ft 15 kts 234°
2026-05-04 19:38 41.96904 -87.89622 672 ft 30 kts 270°
2026-05-04 19:38 41.96905 -87.90241 668 ft 100 kts 269°
2026-05-04 19:39 41.96901 -87.91434 678 ft 152 kts 269°
2026-05-04 19:39 41.96899 -87.92880 1204 ft 161 kts 267°
2026-05-04 19:39 41.96892 -87.94467 1624 ft 183 kts 266°
2026-05-04 19:39 41.96743 -87.96257 2034 ft 204 kts 247°
2026-05-04 19:40 41.95805 -87.97787 2471 ft 230 kts 212°
2026-05-04 19:40 41.94192 -87.98399 3175 ft 249 kts 191°
2026-05-04 19:40 41.92433 -87.98163 4129 ft 263 kts 165°
2026-05-04 19:40 41.90866 -87.96776 5050 ft 281 kts 135°
2026-05-04 19:41 41.89918 -87.94411 5974 ft 294 kts 113°
2026-05-04 19:41 41.89205 -87.91815 6872 ft 299 kts 112°
2026-05-04 19:41 41.88497 -87.89155 7717 ft 305 kts 112°
2026-05-04 19:41 41.87785 -87.86471 8570 ft 311 kts 113°
2026-05-04 19:42 41.87045 -87.83719 9456 ft 317 kts 114°
2026-05-04 19:42 41.86271 -87.80888 9983 ft 334 kts 114°
2026-05-04 19:42 41.84282 -87.73725 10676 ft 386 kts 113°
2026-05-04 19:42 41.80368 -87.59574 13433 ft 412 kts 114°
2026-05-04 19:43 41.76258 -87.44864 16004 ft 429 kts 113°
2026-05-04 19:43 41.71984 -87.29662 18489 ft 443 kts 113°
2026-05-04 19:43 41.67574 -87.14023 20653 ft 454 kts 112°
2026-05-04 19:43 41.63036 -86.98028 22623 ft 464 kts 112°
2026-05-04 19:44 41.58382 -86.81746 24252 ft 473 kts 112°
2026-05-04 19:44 41.53615 -86.65161 25690 ft 482 kts 112°
2026-05-04 19:44 41.48732 -86.48343 27036 ft 489 kts 112°
2026-05-04 19:44 41.43771 -86.31319 28349 ft 496 kts 112°
2026-05-04 19:45 41.38781 -86.14295 30125 ft 490 kts 112°
2026-05-04 19:45 41.35480 -86.03113 31097 ft 489 kts 112°
2026-05-04 19:45 41.30477 -85.86277 32565 ft 488 kts 112°
2026-05-04 19:45 41.23841 -85.64100 34456 ft 485 kts 112°
2026-05-04 19:46 41.20461 -85.52865 35294 ft 485 kts 112°
2026-05-04 19:46 41.13809 -85.30868 36733 ft 486 kts 113°
2026-05-04 19:46 41.10362 -85.19559 36717 ft 485 kts 113°
2026-05-04 19:46 41.05257 -85.02867 36818 ft 483 kts 113°
2026-05-04 19:47 41.00130 -84.86243 36872 ft 486 kts 113°
2026-05-04 19:47 40.94969 -84.69605 36761 ft 491 kts 113°
2026-05-04 19:47 40.89866 -84.53218 36637 ft 492 kts 113°
2026-05-04 19:48 40.79401 -84.20044 36652 ft 485 kts 113°
2026-05-04 19:48 40.74181 -84.03601 36813 ft 483 kts 113°
2026-05-04 19:48 40.68920 -83.87118 36886 ft 483 kts 113°
2026-05-04 19:49 40.58292 -83.54191 36658 ft 490 kts 113°
2026-05-04 19:49 40.52974 -83.37851 36792 ft 483 kts 113°
2026-05-04 19:49 40.47624 -83.21549 36911 ft 482 kts 113°
2026-05-04 19:50 40.36935 -82.89164 36707 ft 489 kts 113°
2026-05-04 19:50 40.26071 -82.56629 36822 ft 484 kts 113°
2026-05-04 19:50 40.20613 -82.40420 36945 ft 484 kts 113°
2026-05-04 19:51 40.15130 -82.24272 36896 ft 489 kts 114°
2026-05-04 19:51 40.09573 -82.07985 36775 ft 491 kts 114°
2026-05-04 19:51 40.04003 -81.91719 36726 ft 489 kts 114°
2026-05-04 19:51 39.98423 -81.75537 36848 ft 484 kts 114°
2026-05-04 19:52 39.92831 -81.59432 36958 ft 484 kts 114°
2026-05-04 19:52 39.81558 -81.27218 36906 ft 491 kts 114°
2026-05-04 19:52 39.75969 -81.11356 36778 ft 492 kts 114°
2026-05-04 19:53 39.72364 -81.01175 36931 ft 488 kts 114°
2026-05-04 19:53 39.67891 -80.88604 36857 ft 486 kts 114°
2026-05-04 19:54 39.62181 -80.72620 36866 ft 490 kts 115°
2026-05-04 19:54 39.57542 -80.59683 36884 ft 491 kts 115°
2026-05-04 19:55 39.54643 -80.51667 36898 ft 491 kts 115°
2026-05-04 19:55 39.51741 -80.43647 36890 ft 492 kts 115°
2026-05-04 19:56 39.48843 -80.35629 36890 ft 492 kts 115°
2026-05-04 19:56 39.45925 -80.27597 36735 ft 492 kts 115°
2026-05-04 19:56 39.44467 -80.23596 36479 ft 492 kts 115°
2026-05-04 19:57 39.43008 -80.19599 36219 ft 491 kts 115°
2026-05-04 19:57 39.41547 -80.15602 35975 ft 491 kts 115°
2026-05-04 19:57 39.40085 -80.11608 35730 ft 492 kts 115°
2026-05-04 19:57 39.38623 -80.07617 35482 ft 492 kts 115°
2026-05-04 19:58 39.37156 -80.03622 35213 ft 492 kts 116°
2026-05-04 19:58 39.35703 -79.99662 34974 ft 492 kts 116°
2026-05-04 19:58 39.34233 -79.95661 34557 ft 493 kts 116°
2026-05-04 19:58 39.32749 -79.91635 33436 ft 501 kts 116°
2026-05-04 19:59 39.31237 -79.87540 32272 ft 507 kts 116°
2026-05-04 19:59 39.29946 -79.83272 31358 ft 510 kts 107°
2026-05-04 19:59 39.29159 -79.78823 31039 ft 508 kts 98°
2026-05-04 19:59 39.28766 -79.74341 30877 ft 510 kts 95°
2026-05-04 20:00 39.28403 -79.69783 30765 ft 511 kts 95°
2026-05-04 20:00 39.28030 -79.65209 30521 ft 513 kts 95°
2026-05-04 20:00 39.27655 -79.60625 30275 ft 514 kts 95°
2026-05-04 20:00 39.27283 -79.56033 30025 ft 515 kts 95°
2026-05-04 20:01 39.26912 -79.51417 29746 ft 517 kts 95°
2026-05-04 20:01 39.26540 -79.46807 29462 ft 517 kts 95°
2026-05-04 20:01 39.26168 -79.42196 29186 ft 517 kts 95°
2026-05-04 20:01 39.25790 -79.37583 28677 ft 516 kts 95°
2026-05-04 20:02 39.25408 -79.32994 28131 ft 510 kts 95°
2026-05-04 20:02 39.25035 -79.28522 27949 ft 492 kts 95°
2026-05-04 20:02 39.24676 -79.24207 27736 ft 477 kts 95°
2026-05-04 20:02 39.24327 -79.19997 27381 ft 467 kts 95°
2026-05-04 20:03 39.23980 -79.15854 26930 ft 461 kts 95°
2026-05-04 20:03 39.23636 -79.11765 26403 ft 456 kts 96°
2026-05-04 20:03 39.23289 -79.07717 25903 ft 452 kts 96°
2026-05-04 20:03 39.22941 -79.03714 25392 ft 447 kts 96°
2026-05-04 20:04 39.22594 -78.99753 24897 ft 443 kts 96°
2026-05-04 20:04 39.22254 -78.95867 24399 ft 439 kts 96°
2026-05-04 20:04 39.21902 -78.91966 23915 ft 435 kts 96°
2026-05-04 20:04 39.21535 -78.88108 23418 ft 432 kts 96°
2026-05-04 20:05 39.21160 -78.84289 22936 ft 427 kts 97°
2026-05-04 20:05 39.20786 -78.80498 22421 ft 425 kts 97°
2026-05-04 20:05 39.20413 -78.76733 21955 ft 422 kts 97°
2026-05-04 20:05 39.20043 -78.72997 21508 ft 418 kts 97°
2026-05-04 20:06 39.19677 -78.69299 21085 ft 414 kts 97°
2026-05-04 20:06 39.19316 -78.65626 20611 ft 412 kts 97°
2026-05-04 20:06 39.18957 -78.61974 20159 ft 408 kts 97°
2026-05-04 20:06 39.18597 -78.58347 19701 ft 406 kts 97°
2026-05-04 20:07 39.18246 -78.54795 19255 ft 403 kts 97°
2026-05-04 20:07 39.17891 -78.51217 18805 ft 400 kts 98°
2026-05-04 20:07 39.17533 -78.47670 18358 ft 397 kts 98°
2026-05-04 20:07 39.17179 -78.44147 17880 ft 395 kts 98°
2026-05-04 20:08 39.16828 -78.40655 17435 ft 392 kts 98°
2026-05-04 20:08 39.16453 -78.37191 16995 ft 389 kts 102°
2026-05-04 20:08 39.15734 -78.33852 16623 ft 386 kts 109°
2026-05-04 20:08 39.14908 -78.30571 16271 ft 384 kts 109°
2026-05-04 20:09 39.14094 -78.27302 15913 ft 382 kts 109°
2026-05-04 20:09 39.13291 -78.24045 15558 ft 381 kts 109°
2026-05-04 20:09 39.12491 -78.20803 15206 ft 379 kts 109°
2026-05-04 20:09 39.11692 -78.17568 14846 ft 378 kts 109°
2026-05-04 20:10 39.10896 -78.14353 14504 ft 376 kts 109°
2026-05-04 20:10 39.10097 -78.11148 14155 ft 374 kts 109°
2026-05-04 20:10 39.09294 -78.07961 13806 ft 373 kts 109°
2026-05-04 20:10 39.08486 -78.04800 13435 ft 371 kts 110°
2026-05-04 20:11 39.07686 -78.01690 13097 ft 369 kts 110°
2026-05-04 20:11 39.06883 -77.98559 12745 ft 367 kts 110°
2026-05-04 20:11 39.06088 -77.95452 12421 ft 364 kts 109°
2026-05-04 20:11 39.05304 -77.92389 12223 ft 355 kts 109°
2026-05-04 20:12 39.04543 -77.89422 12100 ft 344 kts 109°
2026-05-04 20:12 39.03804 -77.86547 11959 ft 333 kts 110°
2026-05-04 20:12 39.03082 -77.83741 11712 ft 328 kts 110°
2026-05-04 20:12 39.02369 -77.80974 11506 ft 325 kts 110°
2026-05-04 20:13 39.01658 -77.78233 11238 ft 322 kts 110°
2026-05-04 20:13 39.00950 -77.75508 10968 ft 320 kts 110°
2026-05-04 20:13 39.00249 -77.72794 10705 ft 319 kts 110°
2026-05-04 20:13 38.99553 -77.70097 10442 ft 317 kts 110°
2026-05-04 20:14 38.98858 -77.67410 10179 ft 315 kts 110°
2026-05-04 20:14 38.98165 -77.64748 9900 ft 313 kts 111°
2026-05-04 20:14 38.97424 -77.62111 9489 ft 314 kts 112°
2026-05-04 20:14 38.96656 -77.59531 9341 ft 304 kts 113°
2026-05-04 20:15 38.95907 -77.57048 9040 ft 301 kts 113°
2026-05-04 20:15 38.95168 -77.54501 8687 ft 300 kts 108°
2026-05-04 20:15 38.94859 -77.51867 8147 ft 307 kts 90°
2026-05-04 20:15 38.95171 -77.49136 7569 ft 313 kts 72°
2026-05-04 20:16 38.96016 -77.46496 6991 ft 318 kts 66°
2026-05-04 20:16 38.96895 -77.43917 6426 ft 318 kts 66°
2026-05-04 20:16 38.97764 -77.41347 6045 ft 305 kts 67°
2026-05-04 20:16 38.98585 -77.38896 5949 ft 291 kts 67°
2026-05-04 20:17 38.99368 -77.36548 5796 ft 285 kts 68°
2026-05-04 20:17 39.00144 -77.34217 5489 ft 282 kts 67°
2026-05-04 20:17 39.00911 -77.31916 5190 ft 278 kts 68°
2026-05-04 20:17 39.01676 -77.29636 4893 ft 277 kts 68°
2026-05-04 20:18 39.02431 -77.27365 4595 ft 275 kts 70°
2026-05-04 20:18 39.02738 -77.24983 4309 ft 268 kts 97°
2026-05-04 20:18 39.02235 -77.22738 3995 ft 259 kts 123°
2026-05-04 20:18 39.01102 -77.20991 3705 ft 252 kts 142°
2026-05-04 20:19 38.99834 -77.19479 3425 ft 243 kts 141°
2026-05-04 20:19 38.98634 -77.18014 2988 ft 233 kts 139°
2026-05-04 20:19 38.97587 -77.16458 2461 ft 228 kts 131°
2026-05-04 20:19 38.96620 -77.14913 2098 ft 215 kts 135°
2026-05-04 20:20 38.95568 -77.13603 1712 ft 205 kts 146°
2026-05-04 20:20 38.94461 -77.12594 1601 ft 183 kts 152°
2026-05-04 20:20 38.93418 -77.11860 1515 ft 159 kts 158°
2026-05-04 20:20 38.92524 -77.11205 1473 ft 142 kts 154°
2026-05-04 20:21 38.91697 -77.10556 1330 ft 140 kts 150°
2026-05-04 20:21 38.90968 -77.09732 1081 ft 140 kts 134°
2026-05-04 20:21 38.90337 -77.07344 681 ft 143 kts 109°
2026-05-04 20:22 38.89976 -77.06245 554 ft 130 kts 138°
2026-05-04 20:22 38.89235 -77.05595 556 ft 130 kts 153°
2026-05-04 20:22 38.88489 -77.04988 486 ft 125 kts 147°
2026-05-04 20:22 38.87795 -77.04321 385 ft 125 kts 151°
2026-05-04 20:23 38.86984 -77.03992 221 ft 122 kts 173°
2026-05-04 20:23 38.86150 -77.03874 68 ft 120 kts 180°
2026-05-04 20:23 38.85389 -77.03800 24 ft 90 kts 175°
2026-05-04 20:23 38.85010 -77.03763 24 ft 39 kts 176°
2026-05-04 20:24 38.84895 -77.03884 25 ft 20 kts 321°
2026-05-04 20:24 38.84943 -77.03898 25 ft 1 kts 357°
2026-05-04 20:24 38.84963 -77.03899 24 ft 4 kts 357°
2026-05-04 20:24 38.85001 -77.03902 24 ft 8 kts 356°
2026-05-04 20:25 38.85091 -77.03907 24 ft 17 kts 358°
2026-05-04 20:25 38.85221 -77.03922 24 ft 21 kts 353°
2026-05-04 20:25 38.85379 -77.03940 24 ft 25 kts 356°
2026-05-04 20:25 38.85540 -77.03979 26 ft 21 kts 310°
2026-05-04 20:26 38.85562 -77.04026 24 ft 0 kts 299°
2026-05-04 20:26 38.85564 -77.04031 24 ft 3 kts 296°
2026-05-04 20:26 38.85584 -77.04093 25 ft 10 kts 293°
2026-05-04 20:26 38.85602 -77.04147 24 ft 5 kts 292°